Weather in Kamenec

Belarus     52°24′06″N   23°49′18″E
temp.,
°C
wind,
m/s
gust,
m/s
humid.,
%
clouds,
%
prec.,
mm/h
press.,
hPa
HPBL,
m
26 february, fri
fri2600:00+5sw47900 0.0 1025126
03:00+4wsw48890 0.0 1024143
06:00+4w38940 0.0 1023139
09:00+4w389612 0.0 1022153
12:00+7wnw5108790 0.0 1022407
15:00+9wnw6116595 0.0 1021807
18:00+6w51178100 0.3 1021600
21:00+4wnw51282100 0.4 1020513
27 february, sat
sat2700:00+4wnw61386100 0.0 1020665
03:00+4wnw61284100 0.0 1021676
06:00+4wnw6138775 0.0 1019667
09:00+3wnw7129088 0.0 1020827
12:00+5nw8127179 0.0 10211041
15:00+7nw8126162 0.0 10231351
18:00+5nnw6116798 0.0 10241241
21:00+3nw6137672 0.0 1025659
28 february, sun
sun2800:00+1nw512810 0.0 1027553
03:000nnw511842 0.0 1029515
06:00−1nw49880 0.0 1029373
09:000nw598742 0.0 1030488
12:00+3nw586996 0.0 1029666
15:00+6nw586071 0.0 1029954
18:00+5wnw4107099 0.0 1027663
21:00+4nw41279100 0.0 1028659
1 march, mon
mon100:00+4nnw51094100 0.4 1029578
03:00+3nnw3890100 0.5 1030423
06:00+2nnw359471 0.0 1031171
09:00+2nw369486 0.0 1032233
12:00+4nw468068 0.0 1033403
15:00+8nnw576635 0.0 1032792
18:00+8nnw47698 0.0 1032802
21:00+5nnw35867 0.0 1034110
2 march, tue
tue200:00+3nw239140 0.0 103560
03:00+2nw339250 0.0 103567
06:00+1wnw369155 0.0 1035123
09:00+2wnw498861 0.0 1035204
12:00+6wnw4870100 0.0 1036345
15:00+10wnw585587 0.0 1035666
18:00+9wnw48603 0.0 1034570
21:00+5wnw38792 0.0 1034183